#timestamp,LO_Frequency,Hit,StdDev 
1517065215.3,286046999.8,N
1517065235.1,286047002.3,N
1517065236.0,286047002.3,N
1517065255.8,286046999.8,N
1517065275.7,286047002.0,N
1517065295.5,286047002.6,N
1517065315.3,286047002.2,N
1517065335.2,286047002.1,N
1517065355.0,286047004.0,Y
1517065355.9,286047004.0,P
1517065375.8,286047000.0,N
1517065395.6,286046999.8,N
1517065415.4,286047000.3,N
1517065435.3,286047000.3,N
1517065455.1,286047000.2,N
1517065475.9,286047002.5,N
1517065495.7,286047002.4,N
1517065515.5,286047004.4,Y
1517065535.4,286047001.7,P
1517065555.2,286047004.2,P
1517065575.1,286047003.1,N
1517065576.0,286047003.1,N
1517065595.8,286047004.1,Y
1517065615.6,286047002.5,P
1517065635.5,286047004.1,P
1517065655.3,286047001.7,N
1517065675.2,286047004.1,Y
1517065695.9,286047002.3,P
1517065715.7,286047002.8,P
1517065735.6,286047002.4,P
1517065755.4,286047001.4,Y
1517065775.2,286046999.7,P
1517065795.1,286047001.7,N
1517065796.0,286047001.7,N
1517065815.8,286047002.3,N
1517065835.7,286047000.0,N
1517065855.5,286047000.1,N
1517065875.3,286047002.7,N
1517065895.2,286047002.7,N
1517065915.0,286047000.4,N
1517065915.9,286047000.4,N
1517065935.8,286046999.9,N
1517065955.6,286047000.9,N
1517065975.4,286047000.8,N
1517065995.3,286046998.8,N
1517066015.1,286046999.4,N
1517066035.9,286046999.2,N
1517066055.7,286046999.6,N
1517066075.5,286046997.7,N
1517066095.4,286046995.1,Y
1517066115.2,286046993.8,P
1517066135.0,286046993.4,N
1517066135.9,286046993.4,N
1517066155.8,286046993.5,N
1517066175.6,286046995.3,N
1517066195.5,286046995.4,N
1517066215.3,286046996.3,N
1517066235.1,286046994.1,N
1517066255.9,286046994.5,N
1517066275.7,286046994.0,N
1517066295.6,286046992.1,Y
1517066315.4,286046998.6,P
1517066335.2,286046998.3,N
1517066355.1,286046998.7,N
1517066356.0,286046998.7,N
1517066375.8,286046998.7,N
1517066395.6,286046998.7,N
1517066415.5,286046999.5,N
1517066435.3,286046996.6,N
1517066455.2,286046997.1,N
1517066475.9,286046998.8,N
1517066495.7,286046999.3,N
1517066515.6,286046997.5,N
1517066535.4,286046995.3,Y
1517066555.3,286046995.8,P
1517066575.1,286046995.8,P
1517066576.0,286046995.8,P
1517066595.8,286046996.0,Y
1517066615.7,286046999.3,P
1517066635.5,286046998.4,N
1517066655.4,286046999.3,N
1517066675.2,286046998.8,N
1517066695.0,286046996.6,Y
1517066695.9,286046996.6,P
1517066715.8,286046996.5,P
1517066735.6,286046998.7,N
1517066755.5,286046999.6,N
1517066775.3,286046996.9,N
1517066795.1,286046997.3,N
1517066815.9,286046997.2,N
1517066835.7,286046999.5,N
1517066855.5,286046996.6,N
1517066875.4,286046997.2,N
1517066895.2,286046995.4,Y
1517066915.1,286046999.0,P
1517066916.0,286046999.0,N
1517066935.8,286046999.4,N
1517066955.6,286046997.1,Y
1517066975.5,286046998.7,P
1517066995.3,286046998.8,P
1517067015.2,286046998.9,P
1517067035.9,286046996.9,Y
1517067055.7,286046996.9,P
1517067075.6,286046999.0,N
1517067095.4,286046999.0,N
1517067115.3,286046996.6,Y
1517067135.1,286046998.3,P
1517067136.0,286046998.3,P
1517067155.8,286046998.7,P
1517067175.7,286046996.7,Y
1517067195.5,286046996.6,P
1517067215.4,286046995.6,P
1517067235.2,286046995.2,P
1517067255.0,286046994.9,Y
1517067255.9,286046994.9,P
1517067275.8,286046998.3,N
1517067295.6,286046998.8,N
1517067315.4,286046998.9,N
1517067335.3,286046999.5,N
1517067355.1,286046999.4,N
1517067375.9,286046997.2,N
1517067395.7,286046995.0,Y
1517067415.5,286046997.4,P
1517067435.4,286046997.5,P
1517067455.2,286046995.2,P
1517067475.1,286046993.4,Y
1517067476.0,286046993.4,P
1517067495.8,286046996.9,N
1517067515.6,286046996.8,N
1517067535.5,286046996.9,N
1517067555.3,286046997.7,N
1517067575.2,286046995.1,Y
1517067595.9,286046996.5,P
1517067615.7,286046997.1,P
1517067635.6,286046997.2,P
1517067655.4,286046998.0,Y
1517067675.3,286047000.7,P
1517067695.1,286046999.4,N
1517067696.0,286046999.4,N
1517067715.8,286046996.8,N
1517067735.7,286046996.9,N
1517067755.5,286046996.9,N
1517067775.3,286046997.5,N
1517067795.2,286046997.9,N
1517067815.0,286046995.2,Y
1517067815.9,286046995.2,P
1517067835.8,286046995.4,P
1517067855.6,286046993.7,P
1517067875.4,286046996.3,N
1517067895.3,286046995.8,N
1517067915.1,286046993.9,Y
1517067935.9,286046999.4,P
1517067955.7,286046997.0,N
1517067975.5,286046997.1,N
1517067995.4,286046997.0,N
1517068015.2,286046995.4,Y
1517068035.1,286047001.2,P
1517068036.0,286047001.2,N
1517068055.8,286047000.9,N
1517068075.6,286046999.6,N
1517068095.5,286046999.1,N
1517068115.3,286046997.1,N
1517068135.1,286046995.0,Y
1517068155.9,286046996.8,P
1517068175.7,286046997.5,N
1517068195.6,286046998.0,N
1517068215.4,286046996.2,Y
1517068235.2,286046995.6,P
1517068255.1,286046997.6,N
1517068256.0,286046997.6,N
1517068275.8,286046996.1,Y
1517068295.7,286046999.0,P
1517068315.5,286046999.2,N
1517068335.3,286046996.7,P
1517068355.2,286046997.3,N
1517068375.0,286046997.2,N
1517068375.9,286046997.2,N
1517068395.8,286046997.8,N
1517068415.6,286046997.3,Y
1517068435.4,286046996.6,P
1517068455.3,286046997.2,P
1517068475.1,286046998.0,P
1517068495.9,286046997.2,Y
1517068515.7,286046998.3,P
1517068535.5,286047000.8,N
1517068555.4,286046998.2,N
1517068575.2,286046998.5,N
1517068595.0,286046999.0,N
1517068595.9,286046999.0,N
1517068615.8,286046999.0,N
1517068635.6,286046999.6,N
1517068655.5,286046998.7,N
1517068675.3,286046999.6,N
1517068695.1,286046996.7,Y
1517068715.9,286046999.5,P
1517068735.7,286046996.7,P
1517068755.6,286046998.0,N
1517068775.4,286046997.0,N
1517068795.2,286046996.8,Y
